STARLINK-36450, 67317

Orbit data source: Space-Track

STARLINK-36450, 67317 is a payload satellite owned by SpaceX/Seattle (US) in LEO that was launched on Sun, 04 Jan 2026 UTC via an FALCON 9 launch vehicle from the Air Force Eastern Test Range (AFETR). Payload-class satellites include a variety of spacecraft equipped with specific instruments for various scientific and technological missions. These include communications satellites like Starlink; space stations such as the ISS; scientific satellites like the Hubble; Earth observation satellites from companies like Planet Labs, Umbra, and HawkEye 360; GPS; miniature CubeSats for education and research; and military/defense satellites.

Loading next visibility...
Identifier
67317, 2026-002N
Orbit
LEO
Country
Flag of USUS
Related business
Manufacturer
SpaceX/Seattle
Mission
Operational Commercial Communications
Bus & Motor
STARLINK V2MO, Unknown motor
Mass
575 kg wet, ~530 kg dry
Launch date (UTC)
2026-01-04 (2 months ago)
Launch vehicle
FALCON 9
Launch site
Air Force Eastern Test Range (AFETR)
Object type
Payload
Rocket body
Debris
Shape & HBR
Box + 2 Pan, 17.7 m
Radar Cross Section
36.964 m²

Expand to show TLE details & history
Last TLE update: 1 day ago

TLE from 1 day ago
0 STARLINK-36450
1 67317U 26002N   26062.20867362  .00034125  00000-0  12426-2 0  9996
2 67317  43.0046   2.2241 0001796 251.5620 108.5037 15.27612230 10248
Epoch: 2026-03-03T05:00Z
TLE epoch observation values (Epoch: 2026-03-03T05:00:29.400Z)
Latitude
-0°
Longitude
126.11057°
Altitude
483.12 km
Speed
7.625 km/s
True Right ascension
00h 08m 53s
True Declination
0° 00' 00"
Sunlit
Object was in daylight at epoch
Visualization orbit readout
Latitude
Unknown
Longitude
Unknown
Altitude
Unknown
Speed
Unknown
Apparent Right ascension
Unknown
Apparent Declination
Unknown
Sunlit
N/A
Visualization observer readout
Local Sidereal Time
09:13:42
Azimuth
Unknown
Elevation
Unknown
Doppler factor
Unknown
Orbital elements
Apogee altitude
486.13 km
Perigee altitude
483.664 km
Semi-major axis
6,863.034 km
Eccentricity
0.00018
Inclination
43.0046°
RAAN
2.2241°
Arg. of periapsis
251.562°
True anomaly
108.52322°
Mean anomaly
108.5037°
Eccentric anomaly
108.51346°
Mean motion
3.81741 °/min
Orbital period
94.3 mins
BSTAR
0.0012426
Loading maneuver chart data...
Computing Atmospheric mass density...
Loading historical data...
Loading historical data...
Loading historical data...
Loading historical data...
Loading historical data...
Loading historical data...
Loading historical data...

Documentation

Showing up to 5 results
|